Torna al catalogo

STARLINK-30452

AttivoComunicazioniVLEO
NORAD 57925·PAYLOAD·🇺🇸 United States

Lanciato Sep 24, 2023 da Cape Canaveral Space Force Station

Loading…

Prossimi Passaggi (prossime 24 ore)

TLE

AggiornatoSource: CelesTrak SupGP

Epoca: Sep 15, 2026, 02:54 UTC

1 57925C 23147N   26258.12131944  .00034711  00000+0  12566-2 0  2588
2 57925  43.0021 335.8197 0001491 265.8237 112.5917 15.27578039    18

Traccia STARLINK-30452 in tempo reale con AllMySat

Download on the App Store